| time (UTC) | temp F | wind direction | speed knots | gust knots | rain 1hr in | rain 24hr in | rain mn in | humidity % | barometer mb |
| 20260506001504 | 47 | 16 | 0.9 | 7.0 | 0.00 | 0.00 | 0.00 | 81 | 1010.8 |
| 20260506001433 | 47 | 15 | 2.6 | 7.0 | 0.00 | 0.00 | 0.00 | 81 | 1010.6 |
| 20260506000005 | 48 | 25 | 1.7 | 6.1 | 0.00 | 0.00 | 0.00 | 80 | 1010.9 |
| 20260505234505 | 48 | 37 | 1.7 | 5.2 | 0.00 | 0.00 | 0.00 | 81 | 1010.6 |
| 20260505234433 | 48 | 33 | 1.7 | 5.2 | 0.00 | 0.00 | 0.00 | 81 | 1010.7 |
| 20260505233005 | 48 | 26 | 1.7 | 3.5 | 0.00 | 0.00 | 0.00 | 81 | 1010.8 |
| 20260505231717 | 48 | 31 | 1.7 | 5.2 | 0.00 | 0.00 | 0.00 | 81 | 1010.9 |
| 20260505231433 | 48 | 26 | 0.9 | 5.2 | 0.00 | 0.00 | 0.00 | 81 | 1010.9 |
| 20260505230218 | 48 | 55 | 0.9 | 6.1 | 0.00 | 0.00 | 0.00 | 81 | 1011.1 |
| 20260505224504 | 49 | 22 | 1.7 | 5.2 | 0.00 | 0.00 | 0.00 | 80 | 1010.9 |
| 20260505224433 | 49 | 22 | 2.6 | 5.2 | 0.00 | 0.00 | 0.00 | 80 | 1010.8 |
| 20260505221505 | 49 | 40 | 1.7 | 6.1 | 0.00 | 0.00 | 0.00 | 80 | 1010.9 |
| 20260505221433 | 49 | 39 | 1.7 | 6.1 | 0.00 | 0.00 | 0.00 | 80 | 1011.1 |
| 20260505220005 | 49 | 35 | 1.7 | 6.1 | 0.00 | 0.00 | 0.00 | 79 | 1010.9 |
| 20260505214504 | 50 | 19 | 2.6 | 7.0 | 0.00 | 0.00 | 0.00 | 78 | 1010.8 |
| 20260505214433 | 50 | 20 | 2.6 | 7.0 | 0.00 | 0.00 | 0.00 | 78 | 1010.8 |
| 20260505213005 | 50 | 30 | 2.6 | 7.8 | 0.00 | 0.00 | 0.00 | 81 | 1010.8 |
| 20260505211503 | 50 | 45 | 1.7 | 3.5 | 0.00 | 0.00 | 0.00 | 84 | 1010.7 |
| 20260505211433 | 50 | 48 | 1.7 | 3.5 | 0.00 | 0.00 | 0.00 | 84 | 1010.6 |
| 20260505210005 | 50 | 46 | 1.7 | 3.5 | 0.00 | 0.00 | 0.00 | 83 | 1010.9 |
| 20260505204503 | 50 | 55 | 2.6 | 9.6 | 0.00 | 0.00 | 0.00 | 84 | 1010.5 |
| 20260505204433 | 50 | 57 | 4.3 | 9.6 | 0.00 | 0.00 | 0.00 | 84 | 1010.8 |
| 20260505203003 | 51 | 70 | 3.5 | 7.0 | 0.00 | 0.00 | 0.00 | 84 | 1010.6 |
| 20260505201503 | 52 | 52 | 3.5 | 9.6 | 0.00 | 0.00 | 0.00 | 77 | 1010.7 |
| 20260505201433 | 52 | 49 | 3.5 | 9.6 | 0.00 | 0.00 | 0.00 | 77 | 1010.6 |
| 20260505200219 | 53 | 35 | 1.7 | 5.2 | 0.00 | 0.00 | 0.00 | 74 | 1010.3 |
| 20260505194505 | 53 | 63 | 0.0 | 3.5 | 0.00 | 0.00 | 0.00 | 69 | 1010.2 |
| 20260505194433 | 53 | 61 | 0.0 | 3.5 | 0.00 | 0.00 | 0.00 | 69 | 1010.2 |
| 20260505193005 | 53 | 44 | 0.0 | 1.7 | 0.00 | 0.00 | 0.00 | 69 | 1010.0 |
| 20260505191720 | 53 | 79 | 0.0 | 1.7 | 0.00 | 0.00 | 0.00 | 68 | 1009.8 |
| 20260505191433 | 53 | 72 | 0.9 | 1.7 | 0.00 | 0.00 | 0.00 | 68 | 1009.9 |
| 20260505190218 | 53 | 67 | 0.0 | 1.7 | 0.00 | 0.00 | 0.00 | 67 | 1009.6 |
| 20260505184503 | 54 | 70 | 0.0 | 3.5 | 0.00 | 0.00 | 0.00 | 66 | 1009.5 |
| 20260505184433 | 54 | 67 | 0.0 | 3.5 | 0.00 | 0.00 | 0.00 | 66 | 1009.6 |
| 20260505183004 | 54 | 63 | 0.9 | 5.2 | 0.00 | 0.00 | 0.00 | 65 | 1009.4 |
| 20260505181719 | 54 | 71 | 1.7 | 3.5 | 0.00 | 0.00 | 0.00 | 64 | 1009.5 |
| 20260505181433 | 54 | 69 | 1.7 | 3.5 | 0.00 | 0.00 | 0.00 | 65 | 1009.5 |
| 20260505180218 | 54 | 95 | 0.9 | 1.7 | 0.00 | 0.00 | 0.00 | 65 | 1009.6 |
| 20260505174503 | 55 | 58 | 0.0 | 1.7 | 0.00 | 0.00 | 0.00 | 63 | 1009.6 |
| 20260505174433 | 55 | 58 | 0.0 | 1.7 | 0.00 | 0.00 | 0.00 | 63 | 1009.4 |
| 20260505173005 | 55 | 71 | 0.9 | 1.7 | 0.00 | 0.00 | 0.00 | 63 | 1009.3 |
| 20260505171505 | 55 | 69 | 0.0 | 3.5 | 0.00 | 0.00 | 0.00 | 61 | 1009.3 |
| 20260505171433 | 55 | 73 | 0.0 | 3.5 | 0.00 | 0.00 | 0.00 | 62 | 1009.5 |
| 20260505170005 | 55 | 81 | 1.7 | 3.5 | 0.00 | 0.00 | 0.00 | 63 | 1009.6 |
| 20260505164505 | 56 | 91 | 1.7 | 3.5 | 0.00 | 0.00 | 0.00 | 63 | 1009.5 |
| 20260505164433 | 56 | 88 | 1.7 | 3.5 | 0.00 | 0.00 | 0.00 | 63 | 1009.5 |
| 20260505163003 | 56 | 61 | 1.7 | 7.0 | 0.00 | 0.00 | 0.00 | 60 | 1009.4 |
| 20260505161718 | 56 | 71 | 1.7 | 3.5 | 0.00 | 0.00 | 0.00 | 60 | 1009.5 |
| 20260505161433 | 56 | 68 | 1.7 | 3.5 | 0.00 | 0.00 | 0.00 | 61 | 1009.4 |
| 20260505151505 | 58 | 68 | 1.7 | 7.0 | 0.00 | 0.00 | 0.00 | 55 | 1009.7 |
| 20260505151433 | 58 | 69 | 1.7 | 7.8 | 0.00 | 0.00 | 0.00 | 55 | 1009.7 |
| 20260505124505 | 60 | 55 | 1.7 | 5.2 | 0.00 | 0.00 | 0.00 | 52 | 1010.0 |
| 20260505124433 | 60 | 58 | 1.7 | 5.2 | 0.00 | 0.00 | 0.00 | 52 | 1010.0 |
| 20260505123005 | 61 | 37 | 2.6 | 5.2 | 0.00 | 0.00 | 0.00 | 53 | 1010.0 |
| 20260505121503 | 62 | 76 | 1.7 | 9.6 | 0.00 | 0.00 | 0.00 | 48 | 1009.9 |
| 20260505121433 | 62 | 72 | 2.6 | 9.6 | 0.00 | 0.00 | 0.00 | 48 | 1009.9 |
| 20260505120005 | 62 | 42 | 1.7 | 3.5 | 0.00 | 0.00 | 0.00 | 52 | 1009.9 |
| 20260505114504 | 60 | 19 | 1.7 | 6.1 | 0.00 | 0.00 | 0.00 | 56 | 1010.1 |
| 20260505114433 | 60 | 24 | 2.6 | 6.1 | 0.00 | 0.00 | 0.00 | 54 | 1010.0 |
| 20260505113005 | 59 | 38 | 1.7 | 3.5 | 0.00 | 0.00 | 0.00 | 56 | 1009.9 |
| 20260505111719 | 59 | 54 | 2.6 | 7.0 | 0.00 | 0.00 | 0.00 | 57 | 1010.2 |
| 20260505111433 | 58 | 63 | 0.9 | 9.6 | 0.00 | 0.00 | 0.00 | 57 | 1010.4 |
| 20260505110220 | 60 | 39 | 1.7 | 7.0 | 0.00 | 0.00 | 0.00 | 54 | 1010.4 |
| 20260505101503 | 59 | 22 | 3.5 | 6.1 | 0.00 | 0.00 | 0.00 | 56 | 1010.9 |
| 20260505101433 | 59 | 24 | 1.7 | 5.2 | 0.00 | 0.00 | 0.00 | 58 | 1010.6 |
| 20260505100003 | 57 | 25 | 2.6 | 6.1 | 0.00 | 0.00 | 0.00 | 61 | 1010.8 |
| 20260505094503 | 58 | 345 | 1.7 | 6.1 | 0.00 | 0.00 | 0.00 | 63 | 1010.6 |
| 20260505094433 | 58 | 349 | 1.7 | 6.1 | 0.00 | 0.00 | 0.00 | 63 | 1011.0 |
| 20260505093004 | 57 | 349 | 1.7 | 5.2 | 0.00 | 0.00 | 0.00 | 66 | 1010.9 |
| 20260505091505 | 56 | 6 | 0.9 | 5.2 | 0.00 | 0.00 | 0.00 | 67 | 1010.9 |
| 20260505091433 | 56 | 10 | 1.7 | 5.2 | 0.00 | 0.00 | 0.00 | 67 | 1010.9 |
| 20260505090005 | 56 | 13 | 1.7 | 7.0 | 0.00 | 0.00 | 0.00 | 69 | 1011.0 |
| 20260505084505 | 56 | 350 | 1.7 | 6.1 | 0.00 | 0.00 | 0.00 | 67 | 1011.0 |
| 20260505084433 | 56 | 345 | 1.7 | 6.1 | 0.00 | 0.00 | 0.00 | 67 | 1011.2 |
| 20260505083003 | 55 | 37 | 1.7 | 7.0 | 0.00 | 0.00 | 0.00 | 70 | 1010.8 |
| 20260505081505 | 54 | 28 | 3.5 | 7.8 | 0.00 | 0.00 | 0.00 | 73 | 1011.0 |
| 20260505081433 | 54 | 34 | 1.7 | 7.8 | 0.00 | 0.00 | 0.00 | 72 | 1010.8 |
| 20260505080006 | 53 | 356 | 3.5 | 7.0 | 0.00 | 0.00 | 0.00 | 74 | 1011.2 |
| 20260505074433 | 52 | 28 | 1.7 | 5.2 | 0.00 | 0.00 | 0.00 | 75 | 1011.0 |
| 20260505073220 | 53 | 43 | 1.7 | 7.8 | 0.00 | 0.00 | 0.00 | 75 | 1011.1 |
| 20260505071503 | 53 | 10 | 0.9 | 7.0 | 0.00 | 0.00 | 0.00 | 74 | 1011.0 |
| 20260505071433 | 53 | 5 | 1.7 | 7.0 | 0.00 | 0.00 | 0.00 | 74 | 1011.0 |
| 20260505070005 | 52 | 38 | 3.5 | 7.8 | 0.00 | 0.00 | 0.00 | 75 | 1011.4 |
| 20260505064503 | 52 | 15 | 1.7 | 7.0 | 0.00 | 0.00 | 0.00 | 77 | 1011.3 |
| 20260505064433 | 52 | 18 | 1.7 | 7.0 | 0.00 | 0.00 | 0.00 | 77 | 1011.1 |
| 20260505063003 | 52 | 21 | 3.5 | 7.0 | 0.00 | 0.00 | 0.00 | 78 | 1011.2 |
| 20260505061503 | 51 | 6 | 0.0 | 5.2 | 0.00 | 0.00 | 0.00 | 80 | 1011.2 |
| 20260505061433 | 51 | 7 | 0.0 | 5.2 | 0.00 | 0.00 | 0.00 | 80 | 1011.3 |
| 20260505060005 | 51 | 340 | 0.0 | 3.5 | 0.00 | 0.00 | 0.00 | 82 | 1011.3 |
| 20260505054505 | 51 | 329 | 0.0 | 3.5 | 0.00 | 0.00 | 0.00 | 82 | 1011.4 |
| 20260505054433 | 51 | 327 | 0.9 | 3.5 | 0.00 | 0.00 | 0.00 | 83 | 1011.1 |
| 20260505053219 | 51 | 339 | 1.7 | 3.5 | 0.00 | 0.00 | 0.00 | 83 | 1011.4 |
| 20260505051503 | 50 | 13 | 0.9 | 1.7 | 0.00 | 0.00 | 0.00 | 84 | 1011.4 |
| 20260505051433 | 50 | 16 | 0.0 | 1.7 | 0.00 | 0.00 | 0.00 | 85 | 1011.5 |
| 20260505041505 | 48 | 45 | 0.0 | 1.7 | 0.00 | 0.00 | 0.00 | 88 | 1011.4 |
| 20260505041433 | 48 | 45 | 0.0 | 1.7 | 0.00 | 0.00 | 0.00 | 88 | 1011.4 |
| 20260505040004 | 48 | 0 | 0.0 | 0.0 | 0.00 | 0.00 | 0.00 | 88 | 1011.5 |
| 20260505034505 | 48 | 45 | 0.0 | 1.7 | 0.00 | 0.00 | 0.00 | 89 | 1011.4 |
| 20260505034433 | 48 | 45 | 0.0 | 1.7 | 0.00 | 0.00 | 0.00 | 89 | 1011.7 |
| 20260505033003 | 47 | 0 | 0.0 | 0.0 | 0.00 | 0.00 | 0.00 | 89 | 1011.8 |
| 20260505031503 | 47 | 45 | 0.0 | 1.7 | 0.00 | 0.00 | 0.00 | 89 | 1011.7 |
| 20260505031433 | 47 | 45 | 0.0 | 1.7 | 0.00 | 0.00 | 0.00 | 89 | 1011.6 |
| 20260505030005 | 47 | 0 | 0.0 | 0.0 | 0.00 | 0.00 | 0.00 | 89 | 1011.8 |
| 20260505024503 | 47 | 45 | 0.0 | 1.7 | 0.00 | 0.00 | 0.00 | 88 | 1012.0 |
| 20260505024433 | 47 | 45 | 0.0 | 1.7 | 0.00 | 0.00 | 0.00 | 88 | 1011.7 |
| 20260505023005 | 48 | 45 | 0.0 | 1.7 | 0.00 | 0.00 | 0.00 | 87 | 1011.5 |
| 20260505021503 | 49 | 66 | 0.9 | 3.5 | 0.00 | 0.00 | 0.00 | 86 | 1011.6 |
| 20260505021433 | 49 | 66 | 1.7 | 3.5 | 0.00 | 0.00 | 0.00 | 86 | 1011.8 |
| 20260505020218 | 49 | 55 | 1.7 | 3.5 | 0.00 | 0.00 | 0.00 | 86 | 1011.6 |
| 20260505014505 | 50 | 67 | 0.9 | 3.5 | 0.00 | 0.00 | 0.00 | 85 | 1012.0 |
| 20260505014433 | 50 | 67 | 0.9 | 3.5 | 0.00 | 0.00 | 0.00 | 85 | 1011.9 |
| 20260505013005 | 50 | 64 | 0.0 | 1.7 | 0.00 | 0.00 | 0.00 | 86 | 1012.1 |
| 20260505011505 | 50 | 50 | 0.9 | 3.5 | 0.00 | 0.00 | 0.00 | 85 | 1011.9 |
| 20260505011433 | 50 | 49 | 0.9 | 3.5 | 0.00 | 0.00 | 0.00 | 85 | 1012.1 |
| 20260505010220 | 50 | 73 | 1.7 | 3.5 | 0.00 | 0.00 | 0.00 | 86 | 1011.9 |
| 20260505004505 | 50 | 59 | 0.0 | 3.5 | 0.00 | 0.00 | 0.00 | 86 | 1012.0 |
| 20260505004433 | 50 | 59 | 1.7 | 3.5 | 0.00 | 0.00 | 0.00 | 86 | 1012.0 |
| 20260505003004 | 50 | 51 | 1.7 | 3.5 | 0.00 | 0.00 | 0.00 | 87 | 1012.2 |